owner,sensor,date,latitude,longitude,vertical_datum,wind_speed,wind_to_direction,wind_speed_of_gust,qcFlag 
CenGOOS,ioos:station:wmo:42067:1,2017-05-01T02:40Z,30.0430,-88.6490,5.0,11.8,137.8,14.6,'1111122,1111122,1111122' 
CenGOOS,ioos:station:wmo:42067:1,2017-05-01T05:40Z,30.0430,-88.6490,5.0,7.5,148.7,10.9,'1111122,1111122,1111122' 
CenGOOS,ioos:station:wmo:42067:1,2017-05-01T08:40Z,30.0430,-88.6490,5.0,11.5,339.4,14.1,'1111122,1111122,1111122' 
CenGOOS,ioos:station:wmo:42067:1,2017-05-01T11:40Z,30.0430,-88.6490,5.0,8.6,7.2,10.3,'1111122,1111122,1111122' 
CenGOOS,ioos:station:wmo:42067:1,2017-05-01T14:40Z,30.0430,-88.6490,5.0,5.5,11.4,7.4,'1111122,1111122,1111122' 
CenGOOS,ioos:station:wmo:42067:1,2017-05-01T17:40Z,30.0430,-88.6490,5.0,0.9,125.1,1.8,'1111122,1111122,1111122' 
CenGOOS,ioos:station:wmo:42067:1,2017-05-01T20:40Z,30.0430,-88.6490,5.0,3.5,195.8,4.5,'1111122,1111122,1111122' 
CenGOOS,ioos:station:wmo:42067:1,2017-05-01T23:40Z,30.0430,-88.6490,5.0,4.7,217.4,5.7,'1111122,1111122,1111122' 
CenGOOS,ioos:station:wmo:42067:1,2017-05-02T02:40Z,30.0430,-88.6490,5.0,3.8,242.4,4.6,'1111122,1111122,1111122' 
CenGOOS,ioos:station:wmo:42067:1,2017-05-02T05:40Z,30.0430,-88.6490,5.0,1.7,267.4,2.3,'1111122,1111122,1111122' 
CenGOOS,ioos:station:wmo:42067:1,2017-05-02T08:40Z,30.0430,-88.6490,5.0,2.9,21.2,3.5,'1111122,1111122,1111122' 
CenGOOS,ioos:station:wmo:42067:1,2017-05-02T11:40Z,30.0430,-88.6490,5.0,3.5,81.3,4.0,'1111122,1111122,1111122' 
CenGOOS,ioos:station:wmo:42067:1,2017-05-02T14:40Z,30.0430,-88.6490,5.0,3.7,100.8,4.3,'1111122,1111122,1111122' 
CenGOOS,ioos:station:wmo:42067:1,2017-05-02T17:40Z,30.0430,-88.6490,5.0,4.3,137.6,4.9,'1111122,1111122,1111122' 
CenGOOS,ioos:station:wmo:42067:1,2017-05-02T20:40Z,30.0430,-88.6490,5.0,2.0,128.7,2.6,'1111122,1111122,1111122' 
CenGOOS,ioos:station:wmo:42067:1,2017-05-02T23:40Z,30.0430,-88.6490,5.0,3.5,150.1,4.2,'1111122,1111122,1111122' 
CenGOOS,ioos:station:wmo:42067:1,2017-05-03T02:40Z,30.0430,-88.6490,5.0,3.8,146.1,4.6,'1111122,1111122,1111122' 
CenGOOS,ioos:station:wmo:42067:1,2017-05-03T05:40Z,30.0430,-88.6490,5.0,4.2,144.9,4.8,'1111122,1111122,1111122' 
CenGOOS,ioos:station:wmo:42067:1,2017-05-03T08:40Z,30.0430,-88.6490,5.0,3.2,134.6,4.2,'1111122,1111122,1111122' 
CenGOOS,ioos:station:wmo:42067:1,2017-05-03T11:40Z,30.0430,-88.6490,5.0,4.9,125.0,5.6,'1111122,1111122,1111122' 
CenGOOS,ioos:station:wmo:42067:1,2017-05-03T14:40Z,30.0430,-88.6490,5.0,7.3,132.0,8.5,'1111122,1111122,1111122' 
CenGOOS,ioos:station:wmo:42067:1,2017-05-03T17:40Z,30.0430,-88.6490,5.0,5.4,151.3,6.7,'1111122,1111122,1111122' 
CenGOOS,ioos:station:wmo:42067:1,2017-05-03T20:40Z,30.0430,-88.6490,5.0,5.2,177.6,7.7,'1111122,1111122,1111122' 
CenGOOS,ioos:station:wmo:42067:1,2017-05-03T23:40Z,30.0430,-88.6490,5.0,13.5,115.7,16.1,'1111122,1111122,1111122' 
CenGOOS,ioos:station:wmo:42067:1,2017-05-04T02:40Z,30.0430,-88.6490,5.0,11.7,123.6,15.8,'1111122,1111122,1111122' 
CenGOOS,ioos:station:wmo:42067:1,2017-05-04T08:40Z,30.0430,-88.6490,5.0,8.0,49.7,10.3,'1111122,1111122,1111122' 
CenGOOS,ioos:station:wmo:42067:1,2017-05-04T11:40Z,30.0430,-88.6490,5.0,15.6,136.4,18.9,'1111122,1111122,1111122' 
CenGOOS,ioos:station:wmo:42067:1,2017-05-04T14:40Z,30.0430,-88.6490,5.0,10.2,211.3,12.1,'1111122,1111122,1111122' 
CenGOOS,ioos:station:wmo:42067:1,2017-05-04T17:40Z,30.0430,-88.6490,5.0,9.1,210.5,11.5,'1111122,1111122,1111122' 
CenGOOS,ioos:station:wmo:42067:1,2017-05-04T20:40Z,30.0430,-88.6490,5.0,10.4,268.1,12.7,'1111122,1111122,1111122' 
CenGOOS,ioos:station:wmo:42067:1,2017-05-04T23:40Z,30.0430,-88.6490,5.0,11.5,305.8,15.5,'1111122,1111122,1111122' 
CenGOOS,ioos:station:wmo:42067:1,2017-05-05T02:40Z,30.0430,-88.6490,5.0,13.2,328.6,17.1,'1111122,1111122,1111122' 
CenGOOS,ioos:station:wmo:42067:1,2017-05-05T05:40Z,30.0430,-88.6490,5.0,12.0,336.9,15.0,'1111122,1111122,1111122' 
CenGOOS,ioos:station:wmo:42067:1,2017-05-05T08:40Z,30.0430,-88.6490,5.0,10.9,325.1,13.5,'1111122,1111122,1111122' 
CenGOOS,ioos:station:wmo:42067:1,2017-05-05T11:40Z,30.0430,-88.6490,5.0,7.9,284.9,10.4,'1111122,1111122,1111122' 
CenGOOS,ioos:station:wmo:42067:1,2017-05-05T14:40Z,30.0430,-88.6490,5.0,12.1,271.0,15.4,'1111122,1111122,1111122' 
CenGOOS,ioos:station:wmo:42067:1,2017-05-05T17:40Z,30.0430,-88.6490,5.0,12.5,308.8,15.8,'1111122,1111122,1111122' 
CenGOOS,ioos:station:wmo:42067:1,2017-05-05T20:40Z,30.0430,-88.6490,5.0,10.1,287.5,12.5,'1111122,1111122,1111122' 
CenGOOS,ioos:station:wmo:42067:1,2017-05-05T23:40Z,30.0430,-88.6490,5.0,11.5,325.6,15.4,'1111122,1111122,1111122' 
CenGOOS,ioos:station:wmo:42067:1,2017-05-06T02:40Z,30.0430,-88.6490,5.0,12.1,349.3,15.5,'1111122,1111122,1111122' 
CenGOOS,ioos:station:wmo:42067:1,2017-05-06T05:40Z,30.0430,-88.6490,5.0,6.3,4.1,8.0,'1111122,1111122,1111122' 
CenGOOS,ioos:station:wmo:42067:1,2017-05-06T08:40Z,30.0430,-88.6490,5.0,5.4,9.6,7.9,'1111122,1111122,1111122' 
CenGOOS,ioos:station:wmo:42067:1,2017-05-06T11:40Z,30.0430,-88.6490,5.0,4.1,10.4,5.9,'1111122,1111122,1111122' 
CenGOOS,ioos:station:wmo:42067:1,2017-05-06T14:40Z,30.0430,-88.6490,5.0,3.8,343.4,4.7,'1111122,1111122,1111122' 
CenGOOS,ioos:station:wmo:42067:1,2017-05-06T20:40Z,30.0430,-88.6490,5.0,6.7,196.3,8.1,'1111122,1111122,1111122' 
CenGOOS,ioos:station:wmo:42067:1,2017-05-06T23:40Z,30.0430,-88.6490,5.0,8.4,198.7,9.8,'1111122,1111122,1111122' 
CenGOOS,ioos:station:wmo:42067:1,2017-05-07T02:40Z,30.0430,-88.6490,5.0,8.8,202.1,10.4,'1111122,1111122,1111122' 
CenGOOS,ioos:station:wmo:42067:1,2017-05-07T05:40Z,30.0430,-88.6490,5.0,8.6,231.0,9.9,'1111122,1111122,1111122' 
CenGOOS,ioos:station:wmo:42067:1,2017-05-07T08:40Z,30.0430,-88.6490,5.0,7.5,251.2,8.4,'1111122,1111122,1111122' 
CenGOOS,ioos:station:wmo:42067:1,2017-05-07T11:40Z,30.0430,-88.6490,5.0,5.9,294.5,6.7,'1111122,1111122,1111122' 
CenGOOS,ioos:station:wmo:42067:1,2017-05-07T14:40Z,30.0430,-88.6490,5.0,4.4,298.0,5.4,'1111122,1111122,1111122' 
CenGOOS,ioos:station:wmo:42067:1,2017-05-07T17:40Z,30.0430,-88.6490,5.0,3.9,267.4,4.6,'1111122,1111122,1111122' 
CenGOOS,ioos:station:wmo:42067:1,2017-05-07T20:40Z,30.0430,-88.6490,5.0,4.4,208.3,5.3,'1111122,1111122,1111122' 
CenGOOS,ioos:station:wmo:42067:1,2017-05-08T02:40Z,30.0430,-88.6490,5.0,5.6,199.8,6.7,'1111122,1111122,1111122' 
CenGOOS,ioos:station:wmo:42067:1,2017-05-08T05:40Z,30.0430,-88.6490,5.0,7.0,210.2,8.1,'1111122,1111122,1111122' 
CenGOOS,ioos:station:wmo:42067:1,2017-05-08T08:40Z,30.0430,-88.6490,5.0,5.9,241.6,7.2,'1111122,1111122,1111122' 
CenGOOS,ioos:station:wmo:42067:1,2017-05-08T11:40Z,30.0430,-88.6490,5.0,5.2,333.2,5.9,'1111122,1111122,1111122' 
CenGOOS,ioos:station:wmo:42067:1,2017-05-08T14:40Z,30.0430,-88.6490,5.0,3.3,12.1,3.8,'1111122,1111122,1111122' 
CenGOOS,ioos:station:wmo:42067:1,2017-05-08T17:40Z,30.0430,-88.6490,5.0,1.4,230.4,2.2,'1111122,1111122,1111122' 
CenGOOS,ioos:station:wmo:42067:1,2017-05-08T20:40Z,30.0430,-88.6490,5.0,4.5,186.5,5.5,'1111122,1111122,1111122' 
CenGOOS,ioos:station:wmo:42067:1,2017-05-08T23:40Z,30.0430,-88.6490,5.0,5.3,198.6,6.4,'1111122,1111122,1111122' 
CenGOOS,ioos:station:wmo:42067:1,2017-05-09T02:40Z,30.0430,-88.6490,5.0,4.8,219.3,5.2,'1111122,1111122,1111122' 
CenGOOS,ioos:station:wmo:42067:1,2017-05-09T05:40Z,30.0430,-88.6490,5.0,3.9,210.6,4.4,'1111122,1111122,1111122' 
CenGOOS,ioos:station:wmo:42067:1,2017-05-09T08:40Z,30.0430,-88.6490,5.0,3.4,263.8,3.9,'1111122,1111122,1111122' 
CenGOOS,ioos:station:wmo:42067:1,2017-05-09T11:40Z,30.0430,-88.6490,5.0,2.1,332.7,2.8,'1111122,1111122,1111122' 
CenGOOS,ioos:station:wmo:42067:1,2017-05-09T14:40Z,30.0430,-88.6490,5.0,2.6,23.4,3.1,'1111122,1111122,1111122' 
CenGOOS,ioos:station:wmo:42067:1,2017-05-09T17:40Z,30.0430,-88.6490,5.0,2.0,303.6,2.7,'1111122,1111122,1111122' 
CenGOOS,ioos:station:wmo:42067:1,2017-05-09T20:40Z,30.0430,-88.6490,5.0,3.1,264.9,3.6,'1111122,1111122,1111122' 
CenGOOS,ioos:station:wmo:42067:1,2017-05-09T23:40Z,30.0430,-88.6490,5.0,2.5,201.9,3.0,'1111122,1111122,1111122' 
CenGOOS,ioos:station:wmo:42067:1,2017-05-10T02:40Z,30.0430,-88.6490,5.0,5.0,185.0,5.5,'1111122,1111122,1111122' 
CenGOOS,ioos:station:wmo:42067:1,2017-05-10T05:40Z,30.0430,-88.6490,5.0,4.8,186.1,5.3,'1111122,1111122,1111122' 
CenGOOS,ioos:station:wmo:42067:1,2017-05-10T08:40Z,30.0430,-88.6490,5.0,3.2,189.2,3.8,'1111122,1111122,1111122' 
CenGOOS,ioos:station:wmo:42067:1,2017-05-10T11:40Z,30.0430,-88.6490,5.0,2.0,208.0,2.7,'1111122,1111122,1111122' 
CenGOOS,ioos:station:wmo:42067:1,2017-05-10T14:40Z,30.0430,-88.6490,5.0,1.9,57.6,4.4,'1111122,1111122,1111122' 
CenGOOS,ioos:station:wmo:42067:1,2017-05-10T17:40Z,30.0430,-88.6490,5.0,2.1,111.2,3.2,'1111122,1111122,1111122' 
CenGOOS,ioos:station:wmo:42067:1,2017-05-10T20:40Z,30.0430,-88.6490,5.0,3.6,139.2,4.4,'1111122,1111122,1111122' 
CenGOOS,ioos:station:wmo:42067:1,2017-05-11T02:40Z,30.0430,-88.6490,5.0,4.4,177.6,6.9,'1111122,1111122,1111122' 
CenGOOS,ioos:station:wmo:42067:1,2017-05-11T05:40Z,30.0430,-88.6490,5.0,5.7,191.4,6.7,'1111122,1111122,1111122' 
CenGOOS,ioos:station:wmo:42067:1,2017-05-11T08:40Z,30.0430,-88.6490,5.0,5.1,173.3,6.3,'1111122,1111122,1111122' 
CenGOOS,ioos:station:wmo:42067:1,2017-05-11T11:40Z,30.0430,-88.6490,5.0,5.3,175.4,5.4,'1111122,1111122,1111122' 
CenGOOS,ioos:station:wmo:42067:1,2017-05-11T14:40Z,30.0430,-88.6490,5.0,3.5,236.9,4.5,'1111122,1111122,1111122' 
CenGOOS,ioos:station:wmo:42067:1,2017-05-11T17:40Z,30.0430,-88.6490,5.0,3.9,216.9,5.0,'1111122,1111122,1111122' 
CenGOOS,ioos:station:wmo:42067:1,2017-05-11T20:40Z,30.0430,-88.6490,5.0,3.8,184.0,4.8,'1111122,1111122,1111122' 
CenGOOS,ioos:station:wmo:42067:1,2017-05-11T23:40Z,30.0430,-88.6490,5.0,4.9,158.4,6.1,'1111122,1111122,1111122' 
CenGOOS,ioos:station:wmo:42067:1,2017-05-12T02:40Z,30.0430,-88.6490,5.0,8.5,160.5,9.9,'1111122,1111122,1111122' 
CenGOOS,ioos:station:wmo:42067:1,2017-05-12T05:40Z,30.0430,-88.6490,5.0,7.4,197.4,8.7,'1111122,1111122,1111122' 
CenGOOS,ioos:station:wmo:42067:1,2017-05-12T08:40Z,30.0430,-88.6490,5.0,6.3,198.3,7.5,'1111122,1111122,1111122' 
CenGOOS,ioos:station:wmo:42067:1,2017-05-12T11:40Z,30.0430,-88.6490,5.0,5.7,174.0,6.6,'1111122,1111122,1111122' 
CenGOOS,ioos:station:wmo:42067:1,2017-05-12T14:40Z,30.0430,-88.6490,5.0,7.4,174.6,9.3,'1111122,1111122,1111122' 
CenGOOS,ioos:station:wmo:42067:1,2017-05-12T17:40Z,30.0430,-88.6490,5.0,9.2,168.9,11.5,'1111122,1111122,1111122' 
CenGOOS,ioos:station:wmo:42067:1,2017-05-12T20:40Z,30.0430,-88.6490,5.0,7.0,169.2,8.2,'1111122,1111122,1111122' 
CenGOOS,ioos:station:wmo:42067:1,2017-05-12T23:40Z,30.0430,-88.6490,5.0,3.4,138.7,4.5,'1111122,1111122,1111122' 
CenGOOS,ioos:station:wmo:42067:1,2017-05-13T02:40Z,30.0430,-88.6490,5.0,5.9,167.3,8.0,'1111122,1111122,1111122' 
CenGOOS,ioos:station:wmo:42067:1,2017-05-13T05:40Z,30.0430,-88.6490,5.0,8.4,198.1,9.6,'1111122,1111122,1111122' 
CenGOOS,ioos:station:wmo:42067:1,2017-05-13T08:40Z,30.0430,-88.6490,5.0,7.7,290.4,9.6,'1111122,1111122,1111122' 
CenGOOS,ioos:station:wmo:42067:1,2017-05-13T11:40Z,30.0430,-88.6490,5.0,7.9,312.1,9.5,'1111122,1111122,1111122' 
CenGOOS,ioos:station:wmo:42067:1,2017-05-13T14:40Z,30.0430,-88.6490,5.0,7.2,331.5,8.5,'1111122,1111122,1111122' 
CenGOOS,ioos:station:wmo:42067:1,2017-05-13T17:40Z,30.0430,-88.6490,5.0,4.4,289.6,5.9,'1111122,1111122,1111122' 
CenGOOS,ioos:station:wmo:42067:1,2017-05-13T20:40Z,30.0430,-88.6490,5.0,5.1,268.5,6.4,'1111122,1111122,1111122' 
CenGOOS,ioos:station:wmo:42067:1,2017-05-13T23:40Z,30.0430,-88.6490,5.0,6.3,348.8,7.9,'1111122,1111122,1111122' 
CenGOOS,ioos:station:wmo:42067:1,2017-05-14T02:40Z,30.0430,-88.6490,5.0,8.0,13.7,9.6,'1111122,1111122,1111122' 
CenGOOS,ioos:station:wmo:42067:1,2017-05-14T05:40Z,30.0430,-88.6490,5.0,8.2,38.9,9.6,'1111122,1111122,1111122' 
CenGOOS,ioos:station:wmo:42067:1,2017-05-14T08:40Z,30.0430,-88.6490,5.0,4.9,35.0,6.2,'1111122,1111122,1111122' 
CenGOOS,ioos:station:wmo:42067:1,2017-05-14T11:40Z,30.0430,-88.6490,5.0,5.0,32.3,6.3,'1111122,1111122,1111122' 
CenGOOS,ioos:station:wmo:42067:1,2017-05-14T14:40Z,30.0430,-88.6490,5.0,3.0,52.9,3.8,'1111122,1111122,1111122' 
CenGOOS,ioos:station:wmo:42067:1,2017-05-14T17:40Z,30.0430,-88.6490,5.0,1.1,52.5,2.2,'1111122,1111122,1111122' 
CenGOOS,ioos:station:wmo:42067:1,2017-05-14T20:40Z,30.0430,-88.6490,5.0,2.7,160.6,3.2,'1111122,1111122,1111122' 
CenGOOS,ioos:station:wmo:42067:1,2017-05-14T23:40Z,30.0430,-88.6490,5.0,3.9,182.8,4.4,'1111122,1111122,1111122' 
CenGOOS,ioos:station:wmo:42067:1,2017-05-15T02:40Z,30.0430,-88.6490,5.0,3.6,204.4,4.0,'1111122,1111122,1111122' 
CenGOOS,ioos:station:wmo:42067:1,2017-05-15T05:40Z,30.0430,-88.6490,5.0,3.2,264.0,3.7,'1111122,1111122,1111122' 
CenGOOS,ioos:station:wmo:42067:1,2017-05-15T08:40Z,30.0430,-88.6490,5.0,2.2,313.0,2.6,'1111122,1111122,1111122' 
CenGOOS,ioos:station:wmo:42067:1,2017-05-15T11:40Z,30.0430,-88.6490,5.0,2.6,0.8,3.0,'1111122,1111122,1111122' 
CenGOOS,ioos:station:wmo:42067:1,2017-05-15T14:40Z,30.0430,-88.6490,5.0,3.8,53.2,4.4,'1111122,1111122,1111122' 
CenGOOS,ioos:station:wmo:42067:1,2017-05-15T17:40Z,30.0430,-88.6490,5.0,1.1,74.8,1.5,'1111122,1111122,1111122' 
CenGOOS,ioos:station:wmo:42067:1,2017-05-15T20:40Z,30.0430,-88.6490,5.0,2.3,212.6,3.3,'1111122,1111122,1111122' 
CenGOOS,ioos:station:wmo:42067:1,2017-05-15T23:40Z,30.0430,-88.6490,5.0,3.2,165.9,3.7,'1111122,1111122,1111122' 
CenGOOS,ioos:station:wmo:42067:1,2017-05-16T02:40Z,30.0430,-88.6490,5.0,2.5,146.9,3.1,'1111122,1111122,1111122' 
CenGOOS,ioos:station:wmo:42067:1,2017-05-16T05:40Z,30.0430,-88.6490,5.0,2.7,146.2,3.2,'1111122,1111122,1111122' 
CenGOOS,ioos:station:wmo:42067:1,2017-05-16T08:40Z,30.0430,-88.6490,5.0,2.7,181.4,3.4,'1111122,1111122,1111122' 
CenGOOS,ioos:station:wmo:42067:1,2017-05-16T11:40Z,30.0430,-88.6490,5.0,0.9,176.3,1.2,'1111122,1111122,1111122' 
CenGOOS,ioos:station:wmo:42067:1,2017-05-16T14:40Z,30.0430,-88.6490,5.0,1.9,107.4,2.6,'1111122,1111122,1111122' 
CenGOOS,ioos:station:wmo:42067:1,2017-05-16T17:40Z,30.0430,-88.6490,5.0,3.6,109.2,4.7,'1111122,1111122,1111122' 
CenGOOS,ioos:station:wmo:42067:1,2017-05-16T20:40Z,30.0430,-88.6490,5.0,2.5,106.6,3.6,'1111122,1111122,1111122' 
CenGOOS,ioos:station:wmo:42067:1,2017-05-16T23:40Z,30.0430,-88.6490,5.0,3.6,125.7,4.5,'1111122,1111122,1111122' 
CenGOOS,ioos:station:wmo:42067:1,2017-05-17T02:40Z,30.0430,-88.6490,5.0,6.3,123.1,7.4,'1111122,1111122,1111122' 
CenGOOS,ioos:station:wmo:42067:1,2017-05-17T05:40Z,30.0430,-88.6490,5.0,8.3,139.7,9.9,'1111122,1111122,1111122' 
CenGOOS,ioos:station:wmo:42067:1,2017-05-17T08:40Z,30.0430,-88.6490,5.0,8.2,134.7,9.7,'1111122,1111122,1111122' 
CenGOOS,ioos:station:wmo:42067:1,2017-05-17T11:40Z,30.0430,-88.6490,5.0,8.2,140.0,10.1,'1111122,1111122,1111122' 
CenGOOS,ioos:station:wmo:42067:1,2017-05-17T14:40Z,30.0430,-88.6490,5.0,9.1,142.5,11.0,'1111122,1111122,1111122' 
CenGOOS,ioos:station:wmo:42067:1,2017-05-17T17:40Z,30.0430,-88.6490,5.0,7.1,136.7,8.0,'1111122,1111122,1111122' 
CenGOOS,ioos:station:wmo:42067:1,2017-05-17T20:40Z,30.0430,-88.6490,5.0,4.9,132.2,5.7,'1111122,1111122,1111122' 
CenGOOS,ioos:station:wmo:42067:1,2017-05-17T23:40Z,30.0430,-88.6490,5.0,5.8,133.6,7.0,'1111122,1111122,1111122' 
CenGOOS,ioos:station:wmo:42067:1,2017-05-18T02:40Z,30.0430,-88.6490,5.0,8.5,141.0,10.3,'1111122,1111122,1111122' 
CenGOOS,ioos:station:wmo:42067:1,2017-05-18T05:40Z,30.0430,-88.6490,5.0,8.4,142.5,10.3,'1111122,1111122,1111122' 
CenGOOS,ioos:station:wmo:42067:1,2017-05-18T08:40Z,30.0430,-88.6490,5.0,6.0,152.7,6.8,'1111122,1111122,1111122' 
CenGOOS,ioos:station:wmo:42067:1,2017-05-18T11:40Z,30.0430,-88.6490,5.0,5.6,125.2,6.5,'1111122,1111122,1111122' 
CenGOOS,ioos:station:wmo:42067:1,2017-05-18T14:40Z,30.0430,-88.6490,5.0,6.9,128.5,8.2,'1111122,1111122,1111122' 
CenGOOS,ioos:station:wmo:42067:1,2017-05-18T17:40Z,30.0430,-88.6490,5.0,6.9,126.9,7.9,'1111122,1111122,1111122' 
CenGOOS,ioos:station:wmo:42067:1,2017-05-18T20:40Z,30.0430,-88.6490,5.0,7.3,121.5,8.5,'1111122,1111122,1111122' 
CenGOOS,ioos:station:wmo:42067:1,2017-05-18T23:40Z,30.0430,-88.6490,5.0,6.5,128.3,7.9,'1111122,1111122,1111122' 
CenGOOS,ioos:station:wmo:42067:1,2017-05-19T02:40Z,30.0430,-88.6490,5.0,7.8,125.4,9.2,'1111122,1111122,1111122' 
CenGOOS,ioos:station:wmo:42067:1,2017-05-19T05:40Z,30.0430,-88.6490,5.0,7.3,125.3,9.2,'1111122,1111122,1111122' 
CenGOOS,ioos:station:wmo:42067:1,2017-05-19T08:40Z,30.0430,-88.6490,5.0,6.9,135.2,8.1,'1111122,1111122,1111122' 
CenGOOS,ioos:station:wmo:42067:1,2017-05-19T11:40Z,30.0430,-88.6490,5.0,5.1,115.6,6.1,'1111122,1111122,1111122' 
CenGOOS,ioos:station:wmo:42067:1,2017-05-19T14:40Z,30.0430,-88.6490,5.0,6.3,107.2,7.6,'1111122,1111122,1111122' 
CenGOOS,ioos:station:wmo:42067:1,2017-05-19T17:40Z,30.0430,-88.6490,5.0,6.3,110.7,7.6,'1111122,1111122,1111122' 
CenGOOS,ioos:station:wmo:42067:1,2017-05-19T20:40Z,30.0430,-88.6490,5.0,7.6,115.7,9.3,'1111122,1111122,1111122' 
CenGOOS,ioos:station:wmo:42067:1,2017-05-19T23:40Z,30.0430,-88.6490,5.0,7.3,118.4,8.6,'1111122,1111122,1111122' 
CenGOOS,ioos:station:wmo:42067:1,2017-05-20T02:40Z,30.0430,-88.6490,5.0,7.5,122.2,8.9,'1111122,1111122,1111122' 
CenGOOS,ioos:station:wmo:42067:1,2017-05-20T05:40Z,30.0430,-88.6490,5.0,7.3,126.7,8.8,'1111122,1111122,1111122' 
CenGOOS,ioos:station:wmo:42067:1,2017-05-20T08:40Z,30.0430,-88.6490,5.0,8.2,123.2,9.7,'1111122,1111122,1111122' 
CenGOOS,ioos:station:wmo:42067:1,2017-05-20T11:40Z,30.0430,-88.6490,5.0,8.7,129.8,10.0,'1111122,1111122,1111122' 
CenGOOS,ioos:station:wmo:42067:1,2017-05-20T14:40Z,30.0430,-88.6490,5.0,7.6,137.7,8.8,'1111122,1111122,1111122' 
CenGOOS,ioos:station:wmo:42067:1,2017-05-20T17:40Z,30.0430,-88.6490,5.0,7.7,137.7,9.2,'1111122,1111122,1111122' 
CenGOOS,ioos:station:wmo:42067:1,2017-05-20T20:40Z,30.0430,-88.6490,5.0,8.0,141.0,9.4,'1111122,1111122,1111122' 
CenGOOS,ioos:station:wmo:42067:1,2017-05-20T23:40Z,30.0430,-88.6490,5.0,7.6,150.0,8.9,'1111122,1111122,1111122' 
CenGOOS,ioos:station:wmo:42067:1,2017-05-21T02:40Z,30.0430,-88.6490,5.0,13.6,9.4,18.1,'1111122,1111122,1111122' 
CenGOOS,ioos:station:wmo:42067:1,2017-05-21T05:40Z,30.0430,-88.6490,5.0,2.6,221.6,3.8,'1111122,1111122,1111122' 
CenGOOS,ioos:station:wmo:42067:1,2017-05-21T08:40Z,30.0430,-88.6490,5.0,9.0,108.7,10.4,'1111122,1111122,1111122' 
CenGOOS,ioos:station:wmo:42067:1,2017-05-21T11:40Z,30.0430,-88.6490,5.0,9.3,120.1,11.2,'1111122,1111122,1111122' 
CenGOOS,ioos:station:wmo:42067:1,2017-05-21T14:40Z,30.0430,-88.6490,5.0,5.7,133.5,7.0,'1111122,1111122,1111122' 
CenGOOS,ioos:station:wmo:42067:1,2017-05-21T17:40Z,30.0430,-88.6490,5.0,7.2,132.2,8.4,'1111122,1111122,1111122' 
CenGOOS,ioos:station:wmo:42067:1,2017-05-21T20:40Z,30.0430,-88.6490,5.0,5.8,160.8,7.3,'1111122,1111122,1111122' 
CenGOOS,ioos:station:wmo:42067:1,2017-05-21T23:40Z,30.0430,-88.6490,5.0,1.5,314.2,2.3,'1111122,1111122,1111122' 
CenGOOS,ioos:station:wmo:42067:1,2017-05-22T02:40Z,30.0430,-88.6490,5.0,8.8,35.8,10.7,'1111122,1111122,1111122' 
CenGOOS,ioos:station:wmo:42067:1,2017-05-22T05:40Z,30.0430,-88.6490,5.0,0.3,60.2,0.9,'1111122,1111122,1111122' 
CenGOOS,ioos:station:wmo:42067:1,2017-05-22T11:40Z,30.0430,-88.6490,5.0,5.3,39.9,6.1,'1111122,1111122,1111122' 
CenGOOS,ioos:station:wmo:42067:1,2017-05-22T14:40Z,30.0430,-88.6490,5.0,2.5,59.1,3.4,'1111122,1111122,1111122' 
CenGOOS,ioos:station:wmo:42067:1,2017-05-22T20:40Z,30.0430,-88.6490,5.0,0.2,182.8,0.7,'1111122,1111122,1111122' 
CenGOOS,ioos:station:wmo:42067:1,2017-05-22T23:40Z,30.0430,-88.6490,5.0,2.9,116.7,3.5,'1111122,1111122,1111122' 
CenGOOS,ioos:station:wmo:42067:1,2017-05-23T02:40Z,30.0430,-88.6490,5.0,4.1,134.5,5.0,'1111122,1111122,1111122' 
CenGOOS,ioos:station:wmo:42067:1,2017-05-23T05:40Z,30.0430,-88.6490,5.0,7.3,139.1,8.9,'1111122,1111122,1111122' 
CenGOOS,ioos:station:wmo:42067:1,2017-05-23T08:40Z,30.0430,-88.6490,5.0,10.9,166.0,13.0,'1111122,1111122,1111122' 
CenGOOS,ioos:station:wmo:42067:1,2017-05-23T14:40Z,30.0430,-88.6490,5.0,9.9,195.4,12.3,'1111122,1111122,1111122' 
CenGOOS,ioos:station:wmo:42067:1,2017-05-23T17:40Z,30.0430,-88.6490,5.0,11.6,195.5,13.7,'1111122,1111122,1111122' 
CenGOOS,ioos:station:wmo:42067:1,2017-05-23T20:40Z,30.0430,-88.6490,5.0,10.2,203.7,11.8,'1111122,1111122,1111122' 
CenGOOS,ioos:station:wmo:42067:1,2017-05-23T23:40Z,30.0430,-88.6490,5.0,8.4,202.5,10.0,'1111122,1111122,1111122' 
CenGOOS,ioos:station:wmo:42067:1,2017-05-24T02:40Z,30.0430,-88.6490,5.0,4.0,241.1,4.8,'1111122,1111122,1111122' 
CenGOOS,ioos:station:wmo:42067:1,2017-05-24T05:40Z,30.0430,-88.6490,5.0,4.4,261.1,5.8,'1111122,1111122,1111122' 
CenGOOS,ioos:station:wmo:42067:1,2017-05-24T08:40Z,30.0430,-88.6490,5.0,5.3,310.8,6.9,'1111122,1111122,1111122' 
CenGOOS,ioos:station:wmo:42067:1,2017-05-24T11:40Z,30.0430,-88.6490,5.0,7.7,294.9,10.2,'1111122,1111122,1111122' 
CenGOOS,ioos:station:wmo:42067:1,2017-05-24T14:40Z,30.0430,-88.6490,5.0,7.8,304.0,10.1,'1111122,1111122,1111122' 
CenGOOS,ioos:station:wmo:42067:1,2017-05-24T17:40Z,30.0430,-88.6490,5.0,8.9,286.3,10.9,'1111122,1111122,1111122' 
CenGOOS,ioos:station:wmo:42067:1,2017-05-24T20:40Z,30.0430,-88.6490,5.0,7.7,276.1,9.7,'1111122,1111122,1111122' 
CenGOOS,ioos:station:wmo:42067:1,2017-05-24T23:40Z,30.0430,-88.6490,5.0,9.9,252.5,13.7,'1111122,1111122,1111122' 
CenGOOS,ioos:station:wmo:42067:1,2017-05-25T02:40Z,30.0430,-88.6490,5.0,8.9,298.2,11.3,'1111122,1111122,1111122' 
CenGOOS,ioos:station:wmo:42067:1,2017-05-25T05:40Z,30.0430,-88.6490,5.0,9.2,305.8,11.3,'1111122,1111122,1111122' 
CenGOOS,ioos:station:wmo:42067:1,2017-05-25T08:40Z,30.0430,-88.6490,5.0,7.3,314.7,9.4,'1111122,1111122,1111122' 
CenGOOS,ioos:station:wmo:42067:1,2017-05-25T11:40Z,30.0430,-88.6490,5.0,6.1,315.0,8.6,'1111122,1111122,1111122' 
CenGOOS,ioos:station:wmo:42067:1,2017-05-25T14:40Z,30.0430,-88.6490,5.0,3.9,295.8,5.7,'1111122,1111122,1111122' 
CenGOOS,ioos:station:wmo:42067:1,2017-05-25T17:40Z,30.0430,-88.6490,5.0,5.3,279.2,6.8,'1111122,1111122,1111122' 
CenGOOS,ioos:station:wmo:42067:1,2017-05-25T20:40Z,30.0430,-88.6490,5.0,5.3,226.5,6.6,'1111122,1111122,1111122' 
CenGOOS,ioos:station:wmo:42067:1,2017-05-25T23:40Z,30.0430,-88.6490,5.0,5.6,196.3,6.5,'1111122,1111122,1111122' 
CenGOOS,ioos:station:wmo:42067:1,2017-05-26T02:40Z,30.0430,-88.6490,5.0,5.8,177.5,6.8,'1111122,1111122,1111122' 
CenGOOS,ioos:station:wmo:42067:1,2017-05-26T05:40Z,30.0430,-88.6490,5.0,5.2,172.3,6.3,'1111122,1111122,1111122' 
CenGOOS,ioos:station:wmo:42067:1,2017-05-26T08:40Z,30.0430,-88.6490,5.0,6.8,175.2,8.0,'1111122,1111122,1111122' 
CenGOOS,ioos:station:wmo:42067:1,2017-05-26T11:40Z,30.0430,-88.6490,5.0,5.5,154.4,6.7,'1111122,1111122,1111122' 
CenGOOS,ioos:station:wmo:42067:1,2017-05-26T14:40Z,30.0430,-88.6490,5.0,6.8,159.8,8.0,'1111122,1111122,1111122' 
CenGOOS,ioos:station:wmo:42067:1,2017-05-26T17:40Z,30.0430,-88.6490,5.0,5.6,159.2,6.7,'1111122,1111122,1111122' 
CenGOOS,ioos:station:wmo:42067:1,2017-05-26T20:40Z,30.0430,-88.6490,5.0,4.9,149.1,5.9,'1111122,1111122,1111122' 
CenGOOS,ioos:station:wmo:42067:1,2017-05-26T23:40Z,30.0430,-88.6490,5.0,3.7,144.0,4.8,'1111122,1111122,1111122' 
CenGOOS,ioos:station:wmo:42067:1,2017-05-27T02:40Z,30.0430,-88.6490,5.0,6.1,157.4,7.4,'1111122,1111122,1111122' 
CenGOOS,ioos:station:wmo:42067:1,2017-05-27T05:40Z,30.0430,-88.6490,5.0,7.6,166.4,8.8,'1111122,1111122,1111122' 
CenGOOS,ioos:station:wmo:42067:1,2017-05-27T08:40Z,30.0430,-88.6490,5.0,7.2,177.5,8.3,'1111122,1111122,1111122' 
CenGOOS,ioos:station:wmo:42067:1,2017-05-27T11:40Z,30.0430,-88.6490,5.0,4.9,194.7,5.7,'1111122,1111122,1111122' 
CenGOOS,ioos:station:wmo:42067:1,2017-05-27T14:40Z,30.0430,-88.6490,5.0,2.4,204.6,3.3,'1111122,1111122,1111122' 
CenGOOS,ioos:station:wmo:42067:1,2017-05-27T17:40Z,30.0430,-88.6490,5.0,3.4,148.2,3.9,'1111122,1111122,1111122' 
CenGOOS,ioos:station:wmo:42067:1,2017-05-27T20:40Z,30.0430,-88.6490,5.0,4.6,157.1,5.3,'1111122,1111122,1111122' 
CenGOOS,ioos:station:wmo:42067:1,2017-05-27T23:40Z,30.0430,-88.6490,5.0,7.0,161.8,8.3,'1111122,1111122,1111122' 
CenGOOS,ioos:station:wmo:42067:1,2017-05-28T02:40Z,30.0430,-88.6490,5.0,7.4,170.2,9.1,'1111122,1111122,1111122' 
CenGOOS,ioos:station:wmo:42067:1,2017-05-28T05:40Z,30.0430,-88.6490,5.0,7.8,169.3,9.8,'1111122,1111122,1111122' 